Vorticity
nan nan nan nan nan nan nan nan nan nan nan nan nan nan nan nan nan nan nan nan nan nan nan nan nan nan nan nan nan nan nan nan nan
nan 8 7 6 5 5 6 7 6 5 5 4 5 5 4 5 5 5 8 10 8 5 6 4 4 3 2 2 6 6 2 1 nan
nan 11 8 8 9 7 6 7 7 6 5 5 6 6 5 5 6 6 8 8 9 6 7 5 3 4 4 5 3 3 3 3 nan
nan 10 9 9 10 10 8 6 7 8 7 6 6 6 5 5 6 7 7 8 13 5 4 4 4 5 5 5 5 5 5 4 nan
nan 11 10 9 9 8 9 10 9 8 9 8 7 7 8 6 6 7 5 5 9 7 5 7 5 5 4 5 5 5 4 5 nan
nan 8 8 10 11 11 8 9 12 13 12 13 8 7 7 8 6 7 4 5 5 7 6 9 8 7 5 5 6 6 5 4 nan
nan 6 6 9 11 14 14 13 13 14 13 11 10 9 8 7 7 7 7 4 5 7 10 9 7 6 6 6 5 5 6 5 nan
nan 8 7 6 9 9 10 13 12 11 9 8 10 7 7 7 8 9 9 7 5 7 10 8 6 6 5 5 5 6 6 6 nan
nan 7 7 7 6 6 8 7 6 8 10 10 8 9 7 6 8 12 11 9 8 7 8 8 6 5 5 4 5 6 7 5 nan
nan 7 7 7 8 7 7 7 7 7 8 9 10 9 8 8 7 10 14 11 11 9 8 10 8 5 5 6 6 6 5 5 nan
nan 7 8 8 8 7 8 8 8 8 8 7 9 9 10 10 7 7 12 14 11 11 10 11 11 7 6 5 6 6 7 6 nan
nan 9 8 8 7 8 9 9 9 8 9 9 8 8 8 9 10 8 8 13 15 14 10 12 15 12 6 6 6 6 6 7 nan
nan 9 8 8 9 9 9 9 9 8 8 8 9 9 9 7 9 9 8 8 12 15 15 12 14 15 12 8 6 6 7 7 nan
nan 8 7 9 9 8 9 9 9 8 8 8 8 8 8 9 9 8 8 8 9 9 13 15 15 13 14 12 9 7 8 9 nan
nan 8 8 9 9 7 8 9 9 9 8 8 9 9 8 9 9 9 9 8 8 9 11 13 15 15 11 14 12 9 9 10 nan
nan 9 8 8 8 8 9 9 8 9 10 9 10 11 9 10 9 10 10 8 10 9 11 11 10 13 16 12 9 13 15 12 nan
nan 8 8 8 8 8 9 9 10 9 8 8 7 7 11 11 10 10 9 8 8 7 8 9 11 11 13 15 16 12 9 9 nan
nan 6 7 8 9 8 9 8 8 9 8 9 10 8 7 8 10 9 7 9 8 7 8 8 8 9 9 9 13 15 13 13 nan
nan 7 7 8 8 8 8 8 9 8 8 9 11 9 7 7 8 8 8 7 8 9 8 7 7 8 8 7 7 10 11 11 nan
nan nan nan nan nan nan nan nan nan nan nan nan nan nan nan nan nan nan nan nan nan nan nan nan nan nan nan nan nan nan nan nan nan
CAPE
1431 1463 1607 1055 1090 920 1265 1306 1000 975 662 431 407 326 372 205 0 0 0 0 5 38 8 20 131 34 3 0 1 15 41 28 20
1326 1313 1531 1316 1211 802 1004 1376 1190 1203 870 521 410 645 398 64 0 0 0 0 121 140 159 19 39 86 0 0 0 32 19 14 22
1233 1343 1348 1245 1362 1146 903 1225 1459 1552 1002 688 810 688 347 66 0 0 0 0 264 188 221 52 0 0 0 1 0 0 0 5 15
11 945 1416 1479 1168 1304 1253 1161 1240 1483 1247 1152 871 696 335 33 0 0 0 0 42 184 172 156 67 27 4 0 0 0 5 5 12
0 66 451 874 1102 1041 1080 1089 1067 1131 1149 968 775 598 403 50 0 0 0 0 19 216 436 60 49 52 65 5 5 2 14 16 5
0 0 0 0 0 19 279 841 944 688 665 760 781 602 284 95 16 1 3 71 53 121 752 465 44 92 245 172 80 40 40 7 5
0 0 0 0 0 0 0 98 462 430 395 332 465 393 242 93 136 57 108 315 380 192 946 763 625 656 742 436 101 7 13 15 10
0 0 0 0 0 0 0 0 0 64 218 215 194 228 177 125 88 115 142 297 481 482 966 961 849 827 813 696 218 331 145 60 10
0 0 0 0 0 0 0 0 0 0 0 32 77 44 96 208 160 63 35 246 490 612 957 1258 1130 910 860 724 710 622 522 255 11
0 0 0 0 0 0 0 0 0 0 0 0 0 39 18 89 141 76 15 1 245 632 900 1173 1470 860 769 906 944 781 682 407 254
0 0 0 0 0 0 0 0 0 0 0 0 0 0 0 20 106 79 52 25 33 304 603 857 1382 1320 866 787 1030 998 858 652 528
0 0 0 0 0 0 0 0 0 0 0 0 0 0 0 0 0 2 50 46 22 88 654 923 1071 1195 1034 907 1180 1186 1014 946 739
0 0 0 0 0 0 0 0 0 0 0 0 0 0 0 0 0 0 0 11 38 0 69 455 719 962 1069 780 932 1133 961 851 857
0 0 0 0 0 0 0 0 0 0 0 0 0 0 0 0 0 0 0 0 0 4 4 0 37 168 602 732 827 1112 1037 818 866
0 0 0 0 0 0 0 0 0 0 0 0 0 0 0 0 0 0 0 0 0 0 0 0 4 2 57 414 504 696 1093 933 840
0 0 0 0 0 0 0 0 0 0 0 0 0 0 0 0 0 0 0 0 0 0 0 0 8 22 42 85 376 392 553 863 709
0 0 0 0 0 0 0 0 0 0 0 0 0 0 0 0 0 0 0 0 0 0 0 0 0 2 17 7 31 114 240 267 383
0 0 0 0 0 0 0 0 0 0 0 0 4 9 3 0 0 0 0 0 0 0 0 0 0 0 0 0 1 0 0 112 247
0 0 0 0 0 0 0 0 0 0 0 0 3 0 2 18 0 0 0 0 0 0 0 0 0 0 0 0 0 0 0 2 12
0 0 0 0 0 0 0 0 0 0 0 3 1 0 0 0 0 0 0 0 0 0 0 0 0 0 0 0 0 0 0 0 0